This is the latest recevied weather packets stored in our database for station/object KD2RHT-13. If no packets are shown the sender has not sent any weather packets the latest 1 day(s).
| Time | Temp. | Humidity | Pressure | Rain* | Wind** | Luminosity | Snow |
|---|---|---|---|---|---|---|---|
| 1778025953 | 13.33° C | 72% | 1011.4 hPa | 0 mm | 1.34 m/s, 277° | 0 W/m² | - |
| 1778025651 | 13.33° C | 72% | 1011.1 hPa | 0 mm | 1.79 m/s, 4° | 0 W/m² | - |
| 1778025348 | 13.33° C | 71% | 1010.7 hPa | 0 mm | 1.34 m/s, 161° | 0 W/m² | - |
| 1778025045 | 13.89° C | 71% | 1010.7 hPa | 0 mm | 0.89 m/s, 203° | 0 W/m² | - |
| 1778024742 | 13.89° C | 70% | 1010.4 hPa | 0 mm | 1.79 m/s, 263° | 0 W/m² | - |
| 1778024439 | 14.44° C | 72% | 1010.7 hPa | 0 mm | 0.89 m/s, 266° | 0 W/m² | - |
| 1778024136 | 14.44° C | 72% | 1010 hPa | 0 mm | 2.24 m/s, 347° | 2 W/m² | - |
| 1778023834 | 14.44° C | 72% | 1009.7 hPa | 0 mm | 1.34 m/s, 173° | 3 W/m² | - |
| 1778023531 | 15° C | 72% | 1010 hPa | 0 mm | 2.24 m/s, 287° | 3 W/m² | - |
| 1778023229 | 15.56° C | 71% | 1009.7 hPa | 0 mm | 0.89 m/s, 192° | 3 W/m² | - |
| 1778022925 | 15.56° C | 71% | 1009.4 hPa | 0 mm | 0.45 m/s, 206° | 4 W/m² | - |
| 1778022624 | 15.56° C | 71% | 1009.4 hPa | 0 mm | 2.24 m/s, 322° | 6 W/m² | - |
| 1778022321 | 15.56° C | 71% | 1009.4 hPa | 0 mm | 2.24 m/s, 271° | 9 W/m² | - |
| 1778022018 | 15.56° C | 71% | 1009 hPa | 0 mm | 2.24 m/s, 296° | 12 W/m² | - |
| 1778021714 | 16.11° C | 69% | 1009 hPa | 0 mm | 2.24 m/s, 247° | 12 W/m² | - |
| 1778021410 | 16.67° C | 68% | 1009 hPa | 0 mm | 0.89 m/s, 278° | 17 W/m² | - |
| 1778021108 | 16.67° C | 67% | 1009 hPa | 0 mm | 0.89 m/s, 230° | 22 W/m² | - |
| 1778020805 | 16.67° C | 67% | 1008.3 hPa | 0 mm | 2.24 m/s, 246° | 70 W/m² | - |
| 1778020502 | 17.22° C | 68% | 1008.3 hPa | 0 mm | 1.34 m/s, 340° | 78 W/m² | - |
| 1778020198 | 17.22° C | 69% | 1008.3 hPa | 0 mm | 1.79 m/s, 230° | 74 W/m² | - |
| 1778019894 | 17.22° C | 69% | 1008 hPa | 0 mm | 2.24 m/s, 246° | 72 W/m² | - |
| 1778019590 | 17.22° C | 71% | 1008.3 hPa | 0 mm | 0.89 m/s, 240° | 71 W/m² | - |
| 1778019288 | 17.78° C | 71% | 1007.7 hPa | 0 mm | 1.79 m/s, 117° | 106 W/m² | - |
| 1778018984 | 17.78° C | 71% | 1007.7 hPa | 0 mm | 0.45 m/s, 212° | 128 W/m² | - |
| 1778018681 | 17.78° C | 72% | 1007.7 hPa | 0 mm | 0.89 m/s, 147° | 119 W/m² | - |
* Rain latest hour (hover to see other rain measurements)
** Current wind speed in m/s (hover to see current wind gust speed)